Location: Holyhead Bay
(53.3667°N, 4.6667°W)
Time: 18:39:34
(UTC+00:00)

Cosmos 1805 Rocket - Pass Details

Date: 24 November 2020
Orbit: 605 x 631 km, 82.5° (Epoch: 16 January)

Event Time Altitude Azimuth Distance (km) Brightness Sun altitude
Rises 17:06:52 0° 352° (N) 2,939 6.9 -8.2°
Reaches altitude 10° 17:09:13 10° 359° (N) 2,026 6.0 -8.5°
Maximum altitude 17:13:31 44° 72° (ENE) 883 3.9 -9.1°
Drops below altitude 10° 17:17:46 10° 145° (SE) 2,004 6.0 -9.7°
Sets 17:20:05 0° 152° (SSE) 2,903 6.9 -10.0°
